Terminal Aerodrome Forecast
Issued by NWS

Home | Current Version | Previous Version | Graphics & Text | Print | Product List | Glossary On
Versions: 1 2 3 4 5 6 7 8 9 10 11 12 13 14 15 16 17 18 19 20 21 22 23 24 25 26 27 28 29 30 31
000
FTUS43 KLOT 202300
TAFGYY
TAF
KGYY 202331Z 2100/2124 19006KT P6SM SCT150 BKN300
     FM211500 22010KT P6SM SCT060 BKN100
     FM212100 24011KT P6SM VCTS BKN050CB
      TEMPO 2122/2124 5SM SHRA=

USA.gov is the U.S. government's official web portal to all federal, state and local government web resources and services.